Regional Weather Roundup
Issued by NWS

Home | Current Version | Previous Version | Graphics & Text | Print | Product List | Glossary Off
Versions: 1 2 3 4 5 6 7 8 9 10 11 12 13 14 15 16 17 18 19 20 21 22 23 24 25 26 27 28 29 30 31 32 33 34 35 36 37 38 39 40 41 42 43 44 45 46 47 48 49 50

000
ASUS43 KTOP 250259
RWRKS

WEATHER ROUNDUP FOR KANSAS
NATIONAL WEATHER SERVICE GOODLAND KS
1000 PM CDT TUE APR 24 2018

NOTE:  "FAIR" INDICATES FEW OR NO CLOUDS BELOW 12,000 FEET WITH NO
SIGNIFICANT WEATHER AND/OR OBSTRUCTIONS TO VISIBILITY.

KSZ001>006-013>018-027>032-041>047-250400-
NORTHWEST KANSAS

CITY           SKY/WX    TMP DP  RH WIND       PRES   REMARKS
GOODLAND       CLOUDY    38  35  89 N12       30.38R WCI  30
HAYS           LGT RAIN  44  40  85 N15G29    30.31R
HILL CITY      CLOUDY    43  38  82 N17       30.35R
RUSSELL        LGT RAIN  45  43  93 NW16      30.28R
$$

KSZ061>065-074>080-084>089-250400-
SOUTHWEST KANSAS

CITY           SKY/WX    TMP DP  RH WIND       PRES   REMARKS
DODGE CITY     LGT RAIN  43  39  86 N22G30    30.28R FOG
GARDEN CITY    LGT RAIN  40  37  89 N22G32    30.33R WCI  30
GREAT BEND     LGT RAIN  45  42  89 N20       30.28R
LIBERAL        CLOUDY    44  38  79 N21G26    30.32R
$$

KSZ066>073-081>083-090>101-250400-
SOUTHEAST KANSAS

CITY           SKY/WX    TMP DP  RH WIND       PRES   REMARKS
CHANUTE        PTCLDY    61  45  55 N12       30.12R
COFFEYVILLE    CLEAR     63  46  54 NW13      30.11R
HUTCHINSON     CLOUDY    49  44  83 NW20G25   30.23R
MEDICINE LODGE   N/A     49  42  77 N16G31    30.22R
NEWTON         CLOUDY    50  46  86 NW15      30.21R
PARSONS        CLEAR     62  46  55 N12       30.12R
WICHITA INTL   CLOUDY    53  47  79 NW18      30.20R
WICHITA JABRA  CLOUDY    53  48  83 NW16      30.19R
WINFIELD       CLOUDY    58  49  72 N15       30.17R
$$

KSZ007>012-019>026-033>040-048>060-102>105-250400-
NORTHEAST KANSAS

CITY           SKY/WX    TMP DP  RH WIND       PRES   REMARKS
CONCORDIA      CLOUDY    47  44  90 NW13      30.24R
EMPORIA        CLOUDY    55  46  71 NW10      30.16R
LAWRENCE       CLOUDY    60  46  59 N15G26    30.14R
MANHATTAN      CLOUDY    54  48  80 N5        30.19R
OLATHE IND     CLOUDY    60  46  59 N21G32    30.14R
OLATHE EXE     CLOUDY    60  46  59 N17G31    30.12R
SALINA         CLOUDY    50  45  83 NW20      30.24R
TOPEKA BILLARD CLOUDY    58  48  69 N9G25     30.14R
TOPEKA FORBES  CLOUDY    59  47  64 N9        30.14R
$$




USA.gov is the U.S. government's official web portal to all federal, state and local government web resources and services.